Back to catalog

TITAN 3C TRANSTAGE R/B

AliveMEO
NORAD 11560·ROCKET BODY·🇺🇸 United States

Launched Oct 1, 1979 from Cape Canaveral Space Force Station

Loading…

Next Passes (next 24 hours)

TLE

FreshSource: Space-Track

Epoch: Sep 14, 2026, 13:14 UTC

1 11560U 79086C   26257.55204328 -.00000036  00000-0  00000-0 0  9994
2 11560   5.9060  13.1267 1293432 127.5214 245.0206  0.99682009 27136

Track TITAN 3C TRANSTAGE R/B in real time with AllMySat

Download on the App Store